HB9IMQ-13 Weather Reports


time (UTC)temp
C
wind
direction
speed
KPH
gust
KPH
rain 1hr
cm
rain 24hr
cm
rain mn
cm
humidity
%
barometer
mb
20260506133020 10 298 6.4 17.7 0.61 5.51 1.07 90 1007.5
20260506132029 10 257 6.4 12.9 0.89 5.51 1.07 90 1007.4
20260506131037 10 291 6.4 22.5 1.19 5.51 1.07 90 1007.4
20260506130048 10 331 6.4 17.7 1.40 5.41 1.04 90 1007.3
20260506125040 9 273 9.7 19.3 1.70 5.31 1.02 90 1007.2
20260506124017 9 277 11.3 27.4 1.91 5.11 0.99 90 1007.1
20260506123030 10 221 8.0 24.1 2.49 4.90 0.94 90 1007.1
20260506122050 10 9 11.3 30.6 3.00 4.60 0.89 90 1006.8
20260506121024 10 302 6.4 22.5 3.00 4.29 0.81 89 1006.7
20260506120016 10 261 12.9 33.8 3.20 3.99 0.76 89 1006.7
20260506115029 10 268 12.9 37.0 3.30 3.61 0.69 89 1006.7
20260506114027 11 245 9.7 29.0 3.00 3.20 0.61 89 1006.5
20260506113026 11 309 6.4 20.9 2.21 2.39 0.43 89 1006.2
20260506112016 12 286 3.2 9.7 1.40 1.60 0.28 88 1005.9
20260506111030 12 300 3.2 12.9 0.99 1.19 0.20 87 1005.8
20260506110049 12 298 6.4 12.9 0.51 0.71 0.10 86 1005.6
20260506105047 13 298 4.8 16.1 0.10 0.30 0.03 85 1005.5
20260506104022 13 293 1.6 6.4 0.00 0.20 0.00 83 1005.4
20260506103015 13 325 1.6 6.4 0.00 0.20 0.00 82 1005.4
20260506102040 13 323 1.6 6.4 0.00 0.20 0.00 83 1005.4
20260506101029 13 266 3.2 9.7 0.00 0.20 0.00 84 1005.4
20260506100024 13 346 1.6 6.4 0.00 0.20 0.00 84 1005.3
20260506095023 13 323 1.6 6.4 0.00 0.20 0.00 84 1005.2
20260506094023 13 306 1.6 6.4 0.00 0.20 0.00 84 1005.2
20260506093021 13 227 0.0 3.2 0.00 0.20 0.00 83 1005.4
20260506092021 13 150 0.0 0.0 0.00 0.20 0.00 84 1005.3
20260506091020 13 150 0.0 0.0 0.00 0.20 0.00 84 1005.2
20260506090033 13 150 0.0 3.2 0.00 0.20 0.00 84 1005.2
20260506085025 13 151 0.0 3.2 0.00 0.20 0.00 84 1005.2
20260506084025 12 173 0.0 3.2 0.00 0.20 0.00 84 1005.2
20260506083039 12 182 0.0 0.0 0.00 0.20 0.00 84 1005.3
20260506082017 12 182 0.0 0.0 0.00 0.20 0.00 83 1005.0
20260506081031 12 182 0.0 1.6 0.00 0.20 0.00 84 1005.2
20260506073027 12 183 0.0 1.6 0.00 0.20 0.00 87 1005.2
20260506072027 12 186 0.0 1.6 0.00 0.20 0.00 88 1005.2
20260506071025 12 186 0.0 1.6 0.00 0.20 0.00 89 1005.1
20260506062026 10 186 0.0 0.0 0.00 0.20 0.00 91 1005.2
20260506061024 10 186 0.0 1.6 0.00 0.20 0.00 91 1005.2
20260506051015 9 178 0.0 3.2 0.00 0.20 0.00 91 1005.3
20260506045034 9 177 0.0 0.0 0.00 0.20 0.00 91 1005.3
20260506044024 9 177 0.0 0.0 0.00 0.20 0.00 91 1005.3
20260506043023 9 177 0.0 0.0 0.00 0.20 0.00 91 1005.3
20260506042018 9 177 0.0 0.0 0.00 0.20 0.00 91 1005.3
20260506041032 9 177 0.0 3.2 0.00 0.20 0.00 91 1005.3
20260506040030 10 177 0.0 3.2 0.00 0.20 0.00 91 1005.3
20260506035024 10 177 1.6 4.8 0.00 0.20 0.00 91 1005.5
20260506034020 10 178 0.0 3.2 0.00 0.20 0.00 91 1005.7
20260506033020 10 178 3.2 3.2 0.00 0.20 0.00 91 1005.8
20260506032014 10 178 0.0 0.0 0.00 0.20 0.00 91 1005.9
20260506031032 10 178 0.0 0.0 0.00 0.20 0.00 91 1006.0
20260506030029 10 178 0.0 0.0 0.00 0.20 0.00 91 1006.1
20260506025028 10 178 0.0 0.0 0.00 0.20 0.00 91 1006.2
20260506024025 10 178 0.0 0.0 0.00 0.20 0.00 91 1006.5
20260506023024 10 178 0.0 3.2 0.00 0.20 0.00 91 1006.5
20260506022041 10 178 0.0 0.0 0.00 0.20 0.00 91 1006.4
20260506021014 10 178 0.0 6.4 0.00 0.20 0.00 91 1006.4
20260506015047 10 178 1.6 4.8 0.00 0.20 0.00 91 1006.6
20260506014019 10 178 0.0 3.2 0.00 0.20 0.00 91 1006.7
20260506013030 10 178 0.0 4.8 0.00 0.20 0.00 91 1006.8
20260506012024 10 176 0.0 0.0 0.00 0.20 0.00 91 1007.0
20260506011022 10 176 0.0 0.0 0.00 0.20 0.00 91 1007.2
20260506010024 10 176 0.0 0.0 0.00 0.20 0.00 91 1007.2
20260506005038 10 176 0.0 0.0 0.00 0.20 0.00 91 1007.3
20260506004036 10 176 0.0 0.0 0.00 0.20 0.00 91 1007.4
20260506003027 10 176 0.0 0.0 0.00 0.20 0.00 91 1007.4
20260506002025 10 176 0.0 0.0 0.00 0.20 0.00 91 1007.6
20260506001024 10 176 0.0 0.0 0.00 0.20 0.00 91 1007.8
20260506000021 10 176 0.0 1.6 0.00 0.20 0.00 90 1008.0
20260505235033 10 176 0.0 3.2 0.00 0.20 0.00 91 1007.8
20260505234024 10 176 0.0 1.6 0.00 0.20 0.00 90 1007.7
20260505233016 10 176 0.0 3.2 0.00 0.20 0.00 90 1007.8
20260505232054 10 176 0.0 4.8 0.00 0.20 0.00 90 1007.9
20260505231032 10 128 0.0 0.0 0.00 0.20 0.00 90 1007.9
20260505230031 10 122 0.0 0.0 0.00 0.20 0.00 90 1008.0
20260505225031 10 122 0.0 0.0 0.00 0.20 0.00 90 1008.3
20260505224020 10 122 0.0 0.0 0.00 0.20 0.00 90 1008.2
20260505223020 10 123 0.0 0.0 0.00 0.20 0.00 90 1008.0
20260505222020 10 123 0.0 0.0 0.00 0.20 0.00 90 1007.9
20260505221035 10 123 0.0 0.0 0.00 0.20 0.00 90 1008.1
20260505220026 11 123 0.0 0.0 0.00 0.20 0.05 89 1008.3
20260505215026 11 123 0.0 0.0 0.00 0.20 0.05 89 1008.3
20260505214025 11 123 0.0 0.0 0.00 0.20 0.05 89 1008.5
20260505213044 11 123 0.0 0.0 0.00 0.20 0.05 89 1008.5
20260505212021 11 123 0.0 1.6 0.00 0.20 0.05 89 1008.6
20260505211018 11 123 0.0 1.6 0.00 0.20 0.05 88 1008.6
20260505210036 11 123 0.0 1.6 0.00 0.20 0.05 89 1008.5
20260505205028 11 123 0.0 3.2 0.00 0.20 0.05 89 1008.5
20260505204022 11 123 0.0 3.2 0.00 0.20 0.05 88 1008.5
20260505203015 11 123 1.6 4.8 0.00 0.20 0.05 88 1008.5
20260505202028 11 122 0.0 0.0 0.00 0.20 0.05 88 1008.5
20260505201028 11 122 0.0 1.6 0.00 0.20 0.05 88 1008.4
20260505200027 11 104 1.6 6.4 0.00 0.20 0.05 88 1008.4
20260505195044 11 36 0.0 3.2 0.00 0.20 0.05 88 1008.1
20260505194016 11 20 3.2 11.3 0.00 0.20 0.05 87 1008.1
20260505193059 12 101 1.6 8.0 0.00 0.20 0.05 87 1008.0
20260505192028 12 171 0.0 8.0 0.00 0.20 0.05 86 1007.8
20260505191022 12 198 1.6 4.8 0.00 0.20 0.05 86 1007.6
20260505190016 12 181 1.6 4.8 0.00 0.20 0.05 86 1007.8
20260505185026 12 184 3.2 8.0 0.00 0.20 0.05 86 1007.7
20260505184025 13 165 3.2 9.7 0.00 0.20 0.05 86 1007.6
20260505183019 13 155 6.4 14.5 0.00 0.20 0.05 85 1007.7
20260505182016 13 185 6.4 8.0 0.00 0.20 0.05 85 1007.6
20260505181028 13 178 6.4 14.5 0.00 0.20 0.05 85 1007.6
20260505180047 13 196 8.0 16.1 0.00 0.20 0.05 85 1007.7
20260505175016 13 213 8.0 19.3 0.00 0.20 0.05 85 1007.7
20260505174028 13 190 6.4 16.1 0.00 0.20 0.05 86 1007.7
20260505173026 13 167 8.0 14.5 0.00 0.20 0.05 87 1007.8
20260505172026 12 203 3.2 6.4 0.00 0.20 0.05 88 1007.7
20260505171024 12 265 0.0 1.6 0.10 0.20 0.05 87 1007.7
20260505170022 12 265 0.0 3.2 0.10 0.20 0.05 88 1007.5
20260505165043 12 261 3.2 12.9 0.10 0.20 0.05 87 1007.5
20260505164016 12 235 3.2 8.0 0.10 0.20 0.05 87 1007.4
20260505163030 12 277 1.6 12.9 0.10 0.20 0.05 87 1007.3
20260505162028 12 303 4.8 11.3 0.10 0.20 0.05 86 1007.4
20260505161024 13 296 3.2 19.3 0.10 0.10 0.03 84 1007.6
20260505153028 13 329 9.7 20.9 0.10 0.10 0.03 83 1007.3
20260505152027 14 290 9.7 22.5 0.10 0.10 0.03 82 1007.0
20260505151025 15 306 9.7 17.7 0.00 0.00 0.00 80 1007.0